Hourly Weather Rudnica

Today, 10 August, Monday

Time Temperature Precipitation Wind Pressure Humidity
00:00 +15°C° 0 mm 1 mps 741 mmHg 94%
01:00 +14°C° 0 mm 0 mps 741 mmHg 94%
02:00 +15°C° 0 mm 1 mps 741 mmHg 96%
03:00 +15°C° 0 mm 1 mps 741 mmHg 96%
04:00 +15°C° 0 mm 1 mps 741 mmHg 96%
05:00 +15°C° 0 mm 1 mps 741 mmHg 97%
06:00 +18°C° 0 mm 1 mps 741 mmHg 92%
07:00 +20°C° 0 mm 1 mps 741 mmHg 87%
08:00 +21°C° 0 mm 1 mps 741 mmHg 83%
09:00 +23°C° 0.4 mm 1 mps 741 mmHg 76%
10:00 +24°C° 0.4 mm 2 mps 741 mmHg 69%
11:00 +26°C° 0.4 mm 2 mps 741 mmHg 63%
12:00 +26°C° 0.4 mm 2 mps 740 mmHg 60%
13:00 +26°C° 0.4 mm 2 mps 740 mmHg 58%
14:00 +27°C° 0.4 mm 2 mps 739 mmHg 56%
15:00 +26°C° 0.5 mm 2 mps 739 mmHg 62%
16:00 +25°C° 0.5 mm 2 mps 739 mmHg 69%
17:00 +24°C° 0.5 mm 2 mps 739 mmHg 75%
18:00 +23°C° 0.4 mm 2 mps 739 mmHg 81%
19:00 +20°C° 0.4 mm 2 mps 739 mmHg 88%
20:00 +18°C° 0.4 mm 2 mps 739 mmHg 94%
21:00 +17°C° 0 mm 2 mps 739 mmHg 94%
22:00 +16°C° 0 mm 2 mps 739 mmHg 94%
23:00 +16°C° 0 mm 3 mps 739 mmHg 94%

Tomorrow, 11 August, Tuesday

Time Temperature Precipitation Wind Pressure Humidity
00:00 +14°C° 0 mm 2 mps 739 mmHg 95%
01:00 +13°C° 0 mm 2 mps 740 mmHg 95%
02:00 +12°C° 0 mm 2 mps 740 mmHg 95%
03:00 +10°C° 0 mm 3 mps 740 mmHg 96%
04:00 +10°C° 0 mm 3 mps 740 mmHg 96%
05:00 +10°C° 0 mm 3 mps 740 mmHg 97%
06:00 +11°C° 0 mm 3 mps 740 mmHg 92%
07:00 +12°C° 0 mm 3 mps 740 mmHg 87%
08:00 +13°C° 0 mm 4 mps 741 mmHg 82%
09:00 +14°C° 0 mm 4 mps 741 mmHg 80%
10:00 +14°C° 0 mm 4 mps 741 mmHg 78%
11:00 +14°C° 0 mm 4 mps 741 mmHg 76%
12:00 +14°C° 0.1 mm 4 mps 741 mmHg 74%
13:00 +14°C° 0.1 mm 4 mps 741 mmHg 73%
14:00 +15°C° 0.1 mm 4 mps 741 mmHg 72%
15:00 +14°C° 0 mm 4 mps 741 mmHg 72%
16:00 +14°C° 0 mm 4 mps 741 mmHg 73%
17:00 +14°C° 0 mm 4 mps 741 mmHg 73%
18:00 +13°C° 0 mm 4 mps 741 mmHg 77%
19:00 +12°C° 0 mm 4 mps 741 mmHg 80%
20:00 +12°C° 0 mm 3 mps 741 mmHg 84%
21:00 +12°C° 0 mm 4 mps 741 mmHg 82%
22:00 +12°C° 0 mm 4 mps 741 mmHg 81%
23:00 +12°C° 0 mm 4 mps 741 mmHg 80%

Day after tomorrow, 12 August, Wednesday

Time Temperature Precipitation Wind Pressure Humidity
00:00 +12°C° 0 mm 4 mps 741 mmHg 81%
01:00 +12°C° 0 mm 4 mps 741 mmHg 81%
02:00 +12°C° 0 mm 4 mps 740 mmHg 82%
03:00 +12°C° 0 mm 4 mps 741 mmHg 83%
04:00 +11°C° 0 mm 4 mps 741 mmHg 84%
05:00 +11°C° 0 mm 4 mps 741 mmHg 85%
06:00 +12°C° 0 mm 4 mps 741 mmHg 81%
07:00 +13°C° 0 mm 4 mps 741 mmHg 78%
08:00 +13°C° 0 mm 4 mps 741 mmHg 75%
09:00 +14°C° 0 mm 5 mps 741 mmHg 71%
10:00 +15°C° 0 mm 5 mps 741 mmHg 67%
11:00 +16°C° 0 mm 5 mps 741 mmHg 63%
12:00 +16°C° 0.1 mm 5 mps 741 mmHg 65%
13:00 +15°C° 0.1 mm 4 mps 741 mmHg 68%
14:00 +15°C° 0.1 mm 4 mps 741 mmHg 70%
15:00 +14°C° 0 mm 4 mps 742 mmHg 72%
16:00 +14°C° 0 mm 3 mps 742 mmHg 73%
17:00 +15°C° 0 mm 2 mps 742 mmHg 75%
18:00 +13°C° 0 mm 3 mps 742 mmHg 75%
19:00 +13°C° 0 mm 3 mps 742 mmHg 76%
20:00 +12°C° 0 mm 3 mps 742 mmHg 77%
21:00 +12°C° 0 mm 3 mps 742 mmHg 78%
22:00 +11°C° 0 mm 3 mps 742 mmHg 79%
23:00 +10°C° 0 mm 2 mps 742 mmHg 80%

13 August, Thursday

Time Temperature Precipitation Wind Pressure Humidity
00:00 +12°C° 0 mm 2 mps 742 mmHg 78%
01:00 +12°C° 0 mm 2 mps 742 mmHg 76%
02:00 +12°C° 0 mm 2 mps 742 mmHg 74%
03:00 +10°C° 0 mm 2 mps 742 mmHg 76%
04:00 +10°C° 0 mm 2 mps 742 mmHg 77%
05:00 +10°C° 0 mm 2 mps 742 mmHg 78%
06:00 +12°C° 0 mm 2 mps 742 mmHg 76%
07:00 +12°C° 0 mm 3 mps 742 mmHg 73%
08:00 +13°C° 0 mm 3 mps 742 mmHg 70%
09:00 +13°C° 0.1 mm 3 mps 742 mmHg 67%
10:00 +14°C° 0.1 mm 3 mps 742 mmHg 63%
11:00 +14°C° 0.1 mm 3 mps 742 mmHg 60%
12:00 +16°C° 0 mm 3 mps 742 mmHg 59%
13:00 +16°C° 0 mm 3 mps 742 mmHg 58%
14:00 +16°C° 0 mm 3 mps 741 mmHg 57%
15:00 +16°C° 0 mm 3 mps 741 mmHg 59%
16:00 +16°C° 0 mm 3 mps 741 mmHg 62%
17:00 +15°C° 0 mm 2 mps 742 mmHg 64%
18:00 +14°C° 0 mm 2 mps 742 mmHg 69%
19:00 +12°C° 0 mm 2 mps 742 mmHg 75%
20:00 +10°C° 0 mm 2 mps 742 mmHg 80%
21:00 +9°C° 0 mm 2 mps 742 mmHg 82%
22:00 +9°C° 0 mm 2 mps 742 mmHg 84%
23:00 +8°C° 0 mm 2 mps 742 mmHg 86%

14 August, Friday

Time Temperature Precipitation Wind Pressure Humidity
00:00 +8°C° 0 mm 2 mps 742 mmHg 88%
01:00 +7°C° 0 mm 2 mps 742 mmHg 90%
02:00 +7°C° 0 mm 2 mps 742 mmHg 92%
03:00 +7°C° 0 mm 2 mps 742 mmHg 92%
04:00 +7°C° 0 mm 2 mps 742 mmHg 93%
05:00 +7°C° 0 mm 2 mps 742 mmHg 93%
06:00 +9°C° 0 mm 2 mps 742 mmHg 85%
07:00 +13°C° 0 mm 2 mps 742 mmHg 77%
08:00 +15°C° 0 mm 2 mps 742 mmHg 69%
09:00 +16°C° 0 mm 2 mps 741 mmHg 64%
10:00 +17°C° 0 mm 2 mps 741 mmHg 59%
11:00 +19°C° 0 mm 2 mps 741 mmHg 54%
12:00 +18°C° 0.1 mm 2 mps 741 mmHg 56%
13:00 +18°C° 0.1 mm 3 mps 741 mmHg 59%
14:00 +18°C° 0.1 mm 3 mps 740 mmHg 61%
15:00 +17°C° 0 mm 2 mps 740 mmHg 66%
16:00 +16°C° 0 mm 1 mps 740 mmHg 71%
17:00 +15°C° 0 mm 1 mps 740 mmHg 75%
18:00 +15°C° 0 mm 1 mps 739 mmHg 78%
19:00 +14°C° 0 mm 1 mps 739 mmHg 81%
20:00 +13°C° 0 mm 2 mps 739 mmHg 83%
21:00 +13°C° 0.2 mm 2 mps 739 mmHg 87%
22:00 +13°C° 0.2 mm 2 mps 739 mmHg 91%
23:00 +13°C° 0.2 mm 2 mps 739 mmHg 94%

15 August, Saturday

Time Temperature Precipitation Wind Pressure Humidity
00:00 +13°C° 0.1 mm 2 mps 739 mmHg 95%
01:00 +13°C° 0.1 mm 2 mps 739 mmHg 97%
02:00 +13°C° 0.1 mm 2 mps 739 mmHg 98%
03:00 +13°C° 0.1 mm 2 mps 739 mmHg 98%
04:00 +13°C° 0.1 mm 2 mps 738 mmHg 98%
05:00 +13°C° 0.1 mm 1 mps 738 mmHg 98%
06:00 +13°C° 0.1 mm 1 mps 738 mmHg 98%
07:00 +14°C° 0.1 mm 1 mps 738 mmHg 97%
08:00 +14°C° 0.1 mm 1 mps 738 mmHg 96%
09:00 +16°C° 0.1 mm 1 mps 738 mmHg 91%
10:00 +18°C° 0.1 mm 1 mps 738 mmHg 87%
11:00 +17°C° 0.1 mm 0 mps 739 mmHg 83%
12:00 +17°C° 0.8 mm 0 mps 739 mmHg 85%
13:00 +17°C° 0.8 mm 0 mps 738 mmHg 86%
14:00 +19°C° 0.8 mm 1 mps 738 mmHg 88%
15:00 +18°C° 0.2 mm 1 mps 738 mmHg 89%
16:00 +18°C° 0.2 mm 1 mps 738 mmHg 91%
17:00 +16°C° 0.2 mm 1 mps 738 mmHg 93%
18:00 +16°C° 0 mm 1 mps 738 mmHg 94%
19:00 +15°C° 0 mm 1 mps 738 mmHg 95%
20:00 +15°C° 0 mm 1 mps 739 mmHg 96%
21:00 +14°C° 0 mm 1 mps 739 mmHg 96%
22:00 +14°C° 0 mm 1 mps 739 mmHg 96%
23:00 +14°C° 0 mm 1 mps 739 mmHg 96%
Show more